Location: Fontenoy
(49.4072°N, 3.2008°E)
Time: 20:08:04
(UTC+00:00)

CZ-2C R/B - Pass Details

Date: 15 May 2026
Orbit: 781 x 867 km, 98.4° (Epoch: 7 June)

Event Time Altitude Azimuth Distance (km) Brightness Sun altitude
Exits shadow 22:39:09 16° 103° (ESE) 2,003 4.4 -20.1°
Maximum altitude 22:42:04 25° 60° (ENE) 1,562 4.2 -20.2°
Drops below altitude 10° 22:46:14 10° 7° (N) 2,361 6.0 -20.4°
Sets 22:48:54 0° 355° (N) 3,288 7.3 -20.5°
